Location: Passau
(48.5721°N, 13.4363°E)
Time: 13:53:21
(UTC+02:00)

ISS - Pass Details

Date: 11 February 2018
Orbit: 403 x 408 km, 51.6° (Epoch: 22 September)

Event Time Altitude Azimuth Distance (km) Brightness Sun altitude
Rises 17:51:20 0° 291° (WNW) 2,322 1.0 -5.6°
Reaches altitude 10° 17:53:27 10° 286° (WNW) 1,461 0.1 -6.0°
Maximum altitude 17:56:37 49° 210° (SSW) 529 -2.9 -6.5°
Drops below altitude 10° 17:59:48 10° 134° (SE) 1,460 -1.3 -7.0°
Sets 18:01:54 0° 129° (SE) 2,320 -0.4 -7.3°
